Printer-friendly version

IAU Minor Planet Center

Minor Planet Center

MPEC 2005-T92 : 2005 TV51

The following Minor Planet Electronic Circular may be linked-to from your own Web pages, but must not otherwise be redistributed electronically.


Read MPEC 2005-T91 Read MPEC 2005-T93


M.P.E.C. 2005-T92                                Issued 2005 Oct. 14, 03:15 UT

     The Minor Planet Electronic Circulars contain information on unusual
         minor planets and routine data on comets.  They are published
   on behalf of Commission 20 of the International Astronomical Union by the
          Minor Planet Center, Smithsonian Astrophysical Observatory,
                          Cambridge, MA 02138, U.S.A.

                  Supported in part by the Brinson Foundation
             Prepared using the Tamkin Foundation Computer Network

                              MPC@CFA.HARVARD.EDU
          URL http://cfa-www.harvard.edu/iau/mpc.html  ISSN 1523-6714

                                   2005 TV51

Observations:
     K05T51V*tC2005 10 13.15647 23 50 48.26 -05 19 59.4          20.4 V ET092691
     K05T51V tC2005 10 13.17194 23 50 50.44 -05 05 14.5          21.0 V ET092691
     K05T51V tC2005 10 13.18747 23 50 52.45 -04 50 20.4          19.8 V ET092691
     K05T51V tC2005 10 13.25337 23 51 00.39 -03 45 29.2          17.9 V ET092291
     K05T51V tC2005 10 13.27577 23 51 03.00 -03 22 52.4          17.9 V ET092291
     K05T51V tC2005 10 13.28110 23 51 03.71 -03 17 28.9          17.9 V ET092291
     K05T51V tC2005 10 13.28716 23 51 04.43 -03 11 25.1          18.3 V ET092291
     K05T51V tC2005 10 13.37668 23 51 18.82 -01 37 46.3          18.1 V ET092291
     K05T51V tC2005 10 13.38205 23 51 19.90 -01 32 03.8          18.6 V ET092291
     K05T51V tC2005 10 13.38765 23 51 21.05 -01 26 02.1          17.8 V ET092291
     K05T51V  C2005 10 13.78283 23 54 51.35 +06 20 08.5          17.4 V ET092240
     K05T51V  C2005 10 13.78919 23 54 53.30 +06 28 26.5          17.4 V ET092240
     K05T51V  C2005 10 14.10124 23 57 29.09 +13 47 46.7          17.4 R ET092H36
     K05T51V  C2005 10 14.10569 23 57 30.65 +13 54 28.5          17.3 R ET092H36
     K05T51V  C2005 10 14.10930 23 57 31.85 +13 59 54.3          17.5 R ET092H36
     K05T51V  C2005 10 14.11235 23 57 32.89 +14 04 31.4          17.6 R ET092H36

Observer details:
240 Herrenberg.  Observer H. Michels.  0.40-m f/5 reflector + CCD.
291 LPL/Spacewatch II.  Observer T. H. Bressi.  1.8-m f/2.7 reflector + CCD.
691 Steward Observatory, Kitt Peak.  Observers A. S. Descour, M. E. Boschat.
    Measurer A. S. Descour.  0.9-m f/3 reflector + CCD.
H36 Sandlot Observatory, Scranton.  Observer G. Hug.  0.30-m
    Schmidt-Cassegrain + CCD.

Orbital elements:
2005 TV51
Epoch 2005 Aug. 18.0 TT = JDT 2453600.5                 MPC
M 334.36644              (2000.0)            P               Q
n   0.34108832     Peri.   22.88465     +0.73723946     -0.67276752
a   2.0287326      Node    19.80775     +0.58804933     +0.59366077
e   0.5153520      Incl.   10.56715     +0.33267996     +0.44153229
P   2.89           H   26.6           G   0.15           U   7
Residuals in seconds of arc
051013 691  0.5-  0.9+    051013 291 (0.7-  7.6-)   051014 H36  0.5-  0.4+
051013 691  0.1+  0.6+    051013 291  0.4+  2.1+    051014 H36  0.2+  0.1+
051013 691  0.1-  1.7-    051013 291  0.1+  0.0     051014 H36  0.0   0.6-
051013 291  0.8+  1.7-    051013 291  0.5-  1.3+    051014 H36  0.3+  0.2+
051013 291  0.6-  0.2+    051013 240  0.2+  0.4+
051013 291  0.1+  1.1-    051013 240  0.6-  1.1-

Ephemeris:
2005 TV51                a,e,i = 2.03, 0.52, 11                  q = 0.9832
Date    TT    R. A. (2000) Decl.     Delta      r     Elong.  Phase     V
2005 10 07    23 37.82   -38 12.1    0.0455   1.031   133.2    44.9    21.7
2005 10 08    23 38.59   -36 24.6    0.0401   1.028   134.2    44.2    21.4
2005 10 09    23 39.63   -34 02.2    0.0347   1.024   135.7    42.9    21.0
2005 10 10    23 41.02   -30 47.1    0.0295   1.021   138.0    40.9    20.6
2005 10 11    23 42.94   -26 07.5    0.0244   1.017   141.4    37.8    20.1
2005 10 12    23 45.65   -19 03.3    0.0196   1.014   146.6    32.8    19.5
2005 10 13    23 49.69   -07 37.7    0.0152   1.011   154.3    25.4    18.7
2005 10 14    23 56.20   +11 24.3    0.0119   1.009   160.0    19.8    18.0
2005 10 15    00 08.17   +39 07.2    0.0107   1.006   145.3    34.3    18.2
2005 10 16    00 36.71   +66 03.4    0.0121   1.003   122.2    57.2    19.1
2005 10 17    02 44.77   +82 50.7    0.0156   1.001   105.9    73.2    20.1
2005 10 18    09 10.65   +82 26.5    0.0200   0.999    96.3    82.6    21.0
2005 10 19    10 28.25   +76 29.4    0.0248   0.997    90.5    88.0    21.7
2005 10 20    10 50.14   +72 09.7    0.0299   0.995    86.9    91.4    22.2
2005 10 21    11 00.27   +69 02.5    0.0351   0.993    84.6    93.4    22.6
2005 10 22    11 06.12   +66 42.5    0.0404   0.991    83.0    94.7    23.0
2005 10 23    11 09.96   +64 54.4    0.0457   0.990    81.9    95.4    23.3
2005 10 24    11 12.69   +63 28.3    0.0510   0.988    81.2    95.8    23.5
2005 10 25    11 14.75   +62 18.2    0.0564   0.987    80.8    96.0    23.8
2005 10 26    11 16.38   +61 19.9    0.0617   0.986    80.6    95.9    24.0
2005 10 27    11 17.71   +60 30.6    0.0671   0.985    80.5    95.7    24.1

Timothy B. Spahr             (C) Copyright 2005 MPC           M.P.E.C. 2005-T92

Read MPEC 2005-T91 Read MPEC 2005-T93


Our Web policy. Index to the CBAT/MPC/ICQ pages.


Valid HTML 4.01!